Location: Asheville, NC
(35.6000°N, 82.5500°W)
Time: 18:53:49
(UTC-04:00)

N. Korean satellite - Pass Details

Date: 08 January 2018
Orbit: 458 x 513 km, 97.2° (Epoch: 23 April)

Event Time Altitude Azimuth Distance (km) Brightness Sun altitude
Rises 06:49:20 0° 19° (NNE) 2,503 10.2 -10.3°
Reaches altitude 10° 06:51:29 10° 27° (NNE) 1,616 9.3 -9.9°
Maximum altitude 06:54:46 41° 99° (E) 683 8.0 -9.3°
Drops below altitude 10° 06:58:00 10° 170° (S) 1,592 9.6 -8.7°
Sets 07:00:06 0° 178° (S) 2,459 10.5 -8.3°
